Showing default

GSAT 20, 62028

Orbit data source: Space-Track

GSAT 20, 62028 is a payload satellite owned by New Space India (IN) in GEO that was launched on Mon, 18 Nov 2024 UTC via an FALCON 9 launch vehicle from the Air Force Eastern Test Range (AFETR). Payload-class satellites include a variety of spacecraft equipped with specific instruments for various scientific and technological missions. These include communications satellites like Starlink; space stations such as the ISS; scientific satellites like the Hubble; Earth observation satellites from companies like Planet Labs, Umbra, and HawkEye 360; GPS; miniature CubeSats for education and research; and military/defense satellites.

Not visible in the next 10 days
Identifier
62028, 2024-214A
Orbit
GEO
Country
Flag of ININ / IND
Related business
Manufacturer
ISRO SAC/Banga
Mission
Operational Civil Communications
Bus & Motor
I4K, ISRO LAM
Mass
4,700 kg wet, ~2,500 kg dry
Launch date (UTC)
2024-11-18 (2 years ago)
Launch vehicle
FALCON 9
Launch site
Air Force Eastern Test Range (AFETR)
Object type
Payload
Rocket body
Debris
Shape & HBR
Box + 2 Pan, 12.5 m
Radar Cross Section
28.213 m²

Expand to show TLE details & history
Last TLE update: 11 hours ago

TLE from 11 hours ago
0 GSAT 20
1 62028U 24214A   26171.40537204 -.00000023  00000-0  00000+0 0  9998
2 62028   0.0463 108.9199 0001953 329.6343  43.9353  1.00270647  5939
Epoch: 2026-06-20T09:43Z
TLE epoch observation values (Epoch: 2026-06-20T09:43:44.144Z)
Latitude
0.02709°
Longitude
67.963°
Altitude
35,780.442 km
Speed
3.075 km/s
True Right ascension
08h 10m 04s
True Declination
0° 01' 37"
Sunlit
Object was in daylight at epoch
Visualization orbit readout
Latitude
Unknown
Longitude
Unknown
Altitude
Unknown
Speed
Unknown
Apparent Right ascension
Unknown
Apparent Declination
Unknown
Sunlit
N/A
Visualization observer readout
Local Sidereal Time
07:11:59
Azimuth
Unknown
Elevation
Unknown
Doppler factor
Unknown
Orbital elements
Apogee altitude
35,796.219 km
Perigee altitude
35,779.749 km
Semi-major axis
42,166.121 km
Eccentricity
0.0002
Inclination
0.0463°
RAAN
108.9199°
Arg. of periapsis
329.6343°
True anomaly
43.95083°
Mean anomaly
43.9353°
Eccentric anomaly
43.94307°
Mean motion
0.25067 °/min
Orbital period
1,436.17 mins
BSTAR
0
Loading maneuver chart data...
Computing Atmospheric mass density...
Loading historical data...
Loading historical data...
Loading historical data...
Loading historical data...
Loading historical data...
Loading historical data...
Loading historical data...
Other satellites on launch #214 in the year 2024 (2024-11-18 UTC)

Documentation

Showing up to 5 results
|